KALAMSAT-V2 & PSLV R/B (43948 NORAD) Tracking and Keplerian Element Data

This shows tracking and keplerian element data for the satellite.

Feedback or suggestion? Click here.




ElementValue
Catalog43948
NameKALAMSAT-V2 & PSLV R/B
Epoch Orbit416
Epoch Day51.90277276
Epoch Year2019
RAAN331.4648
Inclination98.7946
Eccentricity0.0004687
Argument of Perigee153.9927
Mean Anonmoly206.1553
Mean Motion15.39081558
Decay Rate9.95E-06
L11 43948U 19006B 19051.90277276 .00000995 00000-0 28614-4 0 9998
L22 43948 98.7946 331.4648 0004687 153.9927 206.1553 15.39081558 4161

Live tracking and technical data element details for KALAMSAT-V2 & PSLV R/B (NORAD 43948). KALAMSAT-V2 & PSLV R/B can be tracked NOW for your location showing map with azimuth and elevation plus other details from your city location.

Track the satellite on the map from your city or location and see movement details for azimuth, elevation, latitude, longitude, range, height, and movement on the map or in text.







IsCatalogInMostPopularTable: catalog: 43948, numindb: 9
Update: records affected: 1



GetName: 43948 KALAMSAT-V2 & PSLV R/B

Hit Count: updated at: Thu, 21 Feb 2019 12:32:58 GMT